[[{"header":{"parameterUnit":"m.s-1","parameterCategory":1,"la1":30.2991,"la2":30.254,"lo1":-89.0895,"lo2":-89.0444,"dy":0.0017,"dx":0.0017,"nx":28,"ny":28,"refTime":"2024-07-06T21:00:00:Z","depth":0,"parameterNumber":2,"parameterNumberName":"U-component_of_WINDS"},"data":[0,0,0,0,0,0,0,0,0,0,0,0,0,0,0,0,0,0,0,0,0,0,0,0,0,0,0,0,0,0,0,0,0,0,0,0,0,0,0,0,0,0,0,0,0,0,0,0,0,0,0,0,0,0,0,0,0,0,1.4708,1.4709,0,1.4815,1.4816,1.4817,1.4845,1.4845,1.4844,1.4843,1.4952,1.4955,1.4959,0,0,0,0,0,0,0,0,0,0,0,0,0,1.4525,1.4528,1.4708,1.4709,1.471,1.4814,1.4816,1.4817,1.4845,1.4845,1.4844,1.4843,1.4951,1.4955,1.4959,0,0,0,0,0,0,0,0,0,0,0,0,0,1.4615,1.4529,1.4707,1.4737,1.4741,1.4814,1.4816,1.4818,1.4846,1.4845,1.4844,1.4843,1.4949,1.4954,1.496,1.5011,0,0,1.4976,1.4978,0,0,0,0,0,0,0,0,1.461,1.4622,1.4731,1.4735,1.4739,1.4816,1.4791,1.4883,1.4846,1.4806,1.4843,1.4842,1.4907,1.4916,1.4938,1.5016,1.5021,1.4976,1.4979,1.4981,1.4983,0,0,0,0,0,0,0,1.4604,1.4617,1.475,1.4733,1.4738,1.4744,1.4756,1.4809,1.4861,1.4809,1.4811,1.4824,1.4909,1.4933,1.4941,1.5022,1.4976,1.4981,1.4984,1.4986,1.5146,1.5147,0,0,0,0,0,0,1.4593,1.4612,1.4747,1.4753,1.4671,1.4748,1.4761,1.4792,1.486,1.4869,1.4824,1.4825,1.4924,1.4935,1.4945,1.5008,1.4981,1.4986,1.4989,1.5145,1.5146,1.5147,0,0,0,0,0,0,1.4589,1.4604,1.4742,1.4683,1.4701,1.4752,1.4787,1.4795,1.4818,1.4872,1.4881,1.4839,1.4924,1.4937,1.4994,1.5012,1.4989,1.4993,1.5143,1.5145,1.5147,1.5135,0,0,0,0,0,0,1.4583,1.4603,1.4624,1.4683,1.4704,1.479,1.4788,1.4797,1.4828,1.4829,1.4888,1.4897,1.4924,1.4986,1.4999,1.5019,1.4998,1.5142,1.5144,1.5146,1.5134,1.5137,1.5138,0,0,0,0,0,1.4577,1.4616,1.4625,1.4641,1.4732,1.4791,1.4803,1.4834,1.4829,1.485,1.4883,1.4895,1.5008,1.4992,1.5007,1.5028,1.5141,1.5143,1.5146,1.5134,1.5136,1.5138,0,0,0,0,0,0,1.4557,1.4625,1.4635,1.4695,1.4737,1.4796,1.4823,1.4836,1.4881,1.488,1.4917,1.493,1.4983,1.5012,1.4992,1.508,1.5074,1.508,1.506,1.5063,1.5065,1.5056,1.5002,0,0,0,0,0,1.456,1.4604,1.466,1.4708,1.4729,1.4772,1.48,1.482,1.4865,1.4883,1.4921,1.4963,1.5008,1.5037,1.5082,1.5139,1.5151,1.5161,1.5163,1.5164,1.5168,1.5198,1.5203,1.5155,1.5155,1.5155,0,0,1.4567,1.4609,1.4634,1.4705,1.4741,1.4784,1.4787,1.4833,1.4865,1.489,1.4945,1.4974,1.5024,1.508,1.5107,1.5106,1.5184,1.5167,1.5168,1.5172,1.5201,1.5206,1.521,1.5157,1.5157,1.5157,0,0,1.46,1.4637,1.468,1.4715,1.4768,1.4796,1.4806,1.4863,1.4883,1.4939,1.4958,1.4996,1.5073,1.5107,1.5135,1.5179,1.519,1.5192,1.5202,1.5231,1.5235,1.5238,1.5252,1.5257,1.5196,1.5196,1.5196,0,1.4601,1.4668,1.4701,1.4745,1.4775,1.4799,1.4842,1.4874,1.4938,1.4958,1.4955,1.5051,1.5087,1.515,1.5161,1.5183,1.5194,1.5185,1.5232,1.5235,1.5239,1.5253,1.5258,1.5196,1.5196,1.5196,1.5196,0,1.4665,1.4711,1.4739,1.4801,1.4834,1.4877,1.4916,1.4945,1.4962,1.499,1.5046,1.5089,1.5141,1.5158,1.5176,1.5224,1.5221,1.5225,1.5219,1.5243,1.5256,1.5262,1.5196,1.5196,1.5196,1.5196,0,0,1.469,1.4768,1.4778,1.4805,1.4864,1.49,1.4943,1.4995,1.5019,1.5062,1.5098,1.5162,1.5165,1.5196,1.5218,1.5243,1.5273,1.5244,1.5245,1.5246,1.5327,1.5323,1.5328,1.5281,1.5282,1.5283,1.5322,0,1.473,1.481,1.484,1.4904,1.4946,1.4968,1.5006,1.5045,1.5073,1.5111,1.5141,1.5185,1.5187,1.5205,1.5231,1.5264,1.5289,1.5261,1.5314,1.5316,1.53,1.5336,1.5332,1.5367,1.5328,1.5329,1.5329,0,1.4787,1.483,1.4899,1.4951,1.497,1.5004,1.5052,1.5089,1.5134,1.5151,1.5185,1.5204,1.5249,1.5241,1.5303,1.5283,1.5307,1.5326,1.5328,1.5333,1.5323,1.5341,1.5379,1.5383,1.5338,1.5337,1.5337,0,1.4796,1.4872,1.4922,1.4945,1.5008,1.503,1.5057,1.5101,1.513,1.5172,1.519,1.5237,1.5262,1.5298,1.5328,1.532,1.5387,1.5382,1.5402,1.5401,1.5414,1.5413,1.5455,1.5431,1.5431,1.5431,1.5431,0,1.4837,1.4877,1.4927,1.4958,1.5003,1.5037,1.5081,1.5109,1.5148,1.5183,1.5206,1.5239,1.5278,1.5315,1.5339,1.5386,1.5398,1.5412,1.5418,1.541,1.5408,1.5425,1.5423,1.5432,1.5432,1.5431,1.5431,0,1.4854,1.489,1.4946,1.5,1.5014,1.5045,1.5091,1.5122,1.5149,1.5194,1.5206,1.5249,1.5295,1.5329,1.5388,1.5404,1.5453,1.546,1.5438,1.544,1.5458,1.5455,1.5512,1.552,1.5491,1.5491,1.5492,0,1.4878,1.4909,1.4967,1.4992,1.5019,1.506,1.5089,1.5122,1.5151,1.5204,1.5227,1.5274,1.5313,1.5384,1.542,1.5464,1.5472,1.5488,1.5479,1.5469,1.547,1.5468,1.547,1.5489,1.549,1.549,1.549,0,1.4914,1.4929,1.497,1.5017,1.505,1.5089,1.5127,1.5147,1.5187,1.5218,1.5264,1.5294,1.5354,1.5399,1.5447,1.5474,1.5488,1.5493,1.5499,1.5491,1.5476,1.5483,1.544,1.5491,1.5491,1.5491,1.5491,1.5491,1.4935,1.4963,1.5007,1.5052,1.5084,1.5119,1.5149,1.518,1.522,1.5271,1.5288,1.5335,1.5377,1.5443,1.547,1.5507,1.5507,1.5517,1.552,1.5521,1.552,1.5471,1.5516,1.5516,1.5516,1.5516,1.5516,0,1.4971,1.5,1.5041,1.5093,1.5128,1.5138,1.5181,1.5208,1.525,1.5288,1.5326,1.5378,1.5422,1.5461,1.5506,1.5528,1.5536,1.5539,1.5537,1.5543,1.5518,1.5507,1.5532,1.5532,1.5532,1.5532,1.5532,1.5532,1.4994,1.5042,1.5062,1.5126,1.5155,1.5202,1.5225,1.5257,1.5287,1.5345,1.5381,1.5406,1.5444,1.5492,1.5533,1.5543,1.5558,1.5559,1.5571,1.5547,1.5545,1.5543,1.5533,1.5563,1.5563,1.5593,1.5593,1.5593]},{"header":{"parameterUnit":"m.s-1","parameterCategory":1,"la1":30.2991,"la2":30.254,"lo1":-89.0895,"lo2":-89.0444,"dy":0.0017,"dx":0.0017,"nx":28,"ny":28,"refTime":"2024-07-06T21:00:00:Z","depth":0,"parameterNumber":3,"parameterNumberName":"V-component_of_WINDS"},"data":[0,0,0,0,0,0,0,0,0,0,0,0,0,0,0,0,0,0,0,0,0,0,0,0,0,0,0,0,0,0,0,0,0,0,0,0,0,0,0,0,0,0,0,0,0,0,0,0,0,0,0,0,0,0,0,0,0,0,5.0978,5.0978,0,5.1009,5.101,5.101,5.0919,5.0916,5.0914,5.0911,5.0941,5.0944,5.0948,0,0,0,0,0,0,0,0,0,0,0,0,0,5.0835,5.0839,5.0978,5.0978,5.0979,5.1009,5.101,5.101,5.092,5.0916,5.0913,5.091,5.094,5.0944,5.0948,0,0,0,0,0,0,0,0,0,0,0,0,0,5.0885,5.084,5.0978,5.0937,5.0934,5.1009,5.101,5.101,5.092,5.0916,5.0912,5.0908,5.0939,5.0944,5.0949,5.1064,0,0,5.0964,5.0966,0,0,0,0,0,0,0,0,5.0882,5.089,5.0943,5.094,5.0937,5.0956,5.097,5.1028,5.0921,5.0925,5.0911,5.0906,5.0949,5.0953,5.0968,5.1065,5.1066,5.0965,5.0968,5.097,5.0971,0,0,0,0,0,0,0,5.0879,5.0889,5.099,5.0944,5.094,5.0916,5.0919,5.0981,5.096,5.0925,5.0918,5.0923,5.0947,5.0964,5.0968,5.1067,5.0964,5.0969,5.0972,5.0974,5.1256,5.1261,0,0,0,0,0,0,5.0881,5.0886,5.0989,5.0991,5.0899,5.0922,5.0925,5.0954,5.0959,5.0956,5.0927,5.0919,5.0957,5.0962,5.0969,5.1102,5.097,5.0975,5.0978,5.1252,5.1257,5.1262,0,0,0,0,0,0,5.0879,5.0891,5.0988,5.0937,5.0947,5.0929,5.0962,5.0957,5.0973,5.0961,5.0957,5.0948,5.0954,5.0962,5.104,5.1102,5.0977,5.0982,5.1247,5.1254,5.126,5.137,0,0,0,0,0,0,5.0875,5.0891,5.0936,5.0939,5.0951,5.106,5.0966,5.096,5.0983,5.0973,5.098,5.0977,5.0951,5.1033,5.1045,5.1107,5.0986,5.1241,5.125,5.1258,5.1361,5.138,5.1396,0,0,0,0,0,5.087,5.0966,5.0939,5.0951,5.1006,5.1064,5.1071,5.104,5.0988,5.1032,5.1023,5.0977,5.1093,5.1042,5.1055,5.1119,5.1237,5.1247,5.1257,5.1353,5.1376,5.1396,0,0,0,0,0,0,5.0971,5.0966,5.0935,5.1035,5.1051,5.1049,5.1103,5.1065,5.1096,5.1085,5.1044,5.1047,5.1132,5.1133,5.1076,5.1229,5.1156,5.1169,5.1225,5.1247,5.1264,5.1261,5.099,0,0,0,0,0,5.1005,5.1053,5.1045,5.1134,5.1143,5.1122,5.1146,5.1121,5.1135,5.1141,5.1138,5.1153,5.1193,5.122,5.1256,5.1361,5.136,5.1411,5.1428,5.1443,5.1454,5.1507,5.1529,5.1295,5.1295,5.1295,0,0,5.1075,5.1078,5.1111,5.1154,5.1163,5.1213,5.1128,5.1185,5.1221,5.1149,5.1223,5.1222,5.1235,5.1327,5.1367,5.133,5.1519,5.1456,5.1467,5.1471,5.152,5.1542,5.1562,5.1302,5.1301,5.1299,0,0,5.1228,5.1236,5.131,5.132,5.1335,5.132,5.1337,5.1341,5.1337,5.141,5.1357,5.1398,5.1468,5.1479,5.1494,5.1649,5.1606,5.1662,5.1753,5.1805,5.1823,5.1839,5.1893,5.1913,5.1673,5.1674,5.1674,0,5.1313,5.1387,5.1352,5.1411,5.1431,5.1369,5.1441,5.1453,5.1479,5.1493,5.1452,5.1536,5.1541,5.1633,5.1671,5.1686,5.1703,5.166,5.1824,5.184,5.1854,5.1904,5.1925,5.168,5.1679,5.1679,5.1678,0,5.1489,5.1541,5.1598,5.1624,5.165,5.1716,5.169,5.172,5.1692,5.1681,5.1754,5.1758,5.1793,5.1813,5.1786,5.1901,5.1877,5.1831,5.1757,5.1883,5.193,5.1949,5.1689,5.1687,5.1685,5.1684,0,0,5.1708,5.1712,5.1734,5.1743,5.1754,5.1792,5.1854,5.1888,5.1914,5.1933,5.1983,5.2042,5.1998,5.2015,5.1989,5.2035,5.2155,5.1982,5.1982,5.2013,5.2278,5.2312,5.2335,5.2127,5.213,5.2133,5.2277,0,5.1857,5.1963,5.1933,5.2039,5.2085,5.2025,5.2079,5.209,5.2081,5.2117,5.2106,5.2148,5.2089,5.2098,5.2141,5.2131,5.2207,5.2121,5.2171,5.2173,5.2168,5.236,5.2396,5.2532,5.2295,5.2298,5.23,0,5.2045,5.2071,5.2182,5.2182,5.22,5.2249,5.2276,5.2312,5.2323,5.2313,5.2331,5.2295,5.2354,5.228,5.236,5.2302,5.232,5.2318,5.2323,5.2325,5.2244,5.2366,5.2574,5.2594,5.2329,5.2326,5.2324,0,5.2191,5.2253,5.2327,5.2338,5.2341,5.2376,5.2379,5.2385,5.2407,5.243,5.2443,5.2473,5.249,5.2513,5.2485,5.2435,5.2568,5.2493,5.256,5.2561,5.259,5.2589,5.2803,5.2605,5.2605,5.2604,5.2604,0,5.236,5.2429,5.2392,5.2437,5.2513,5.2476,5.2551,5.2547,5.2553,5.2596,5.2546,5.2587,5.2548,5.2585,5.2563,5.2631,5.2639,5.2631,5.2625,5.2635,5.2636,5.2646,5.2635,5.261,5.2609,5.2608,5.2607,0,5.2535,5.2513,5.2589,5.2585,5.2585,5.2641,5.2637,5.2677,5.2664,5.2718,5.2728,5.2707,5.2747,5.2722,5.2763,5.2748,5.2836,5.2818,5.2833,5.2827,5.2895,5.2888,5.3122,5.315,5.2936,5.2938,5.294,0,5.2644,5.2695,5.2696,5.2721,5.2727,5.2768,5.2789,5.2754,5.2778,5.2793,5.2831,5.2867,5.2894,5.2961,5.2948,5.2979,5.2959,5.3039,5.2963,5.2972,5.2958,5.2955,5.2959,5.3054,5.3057,5.3059,5.306,0,5.2838,5.2824,5.2857,5.2885,5.2911,5.2932,5.2949,5.2972,5.2936,5.2966,5.3006,5.3027,5.3068,5.3103,5.3128,5.313,5.3089,5.3084,5.3101,5.3112,5.3118,5.3113,5.2873,5.3079,5.3077,5.3076,5.3075,5.3074,5.2982,5.3024,5.3031,5.3068,5.3077,5.3093,5.313,5.3121,5.3154,5.3184,5.3161,5.3209,5.3216,5.3245,5.3252,5.3287,5.3255,5.328,5.3286,5.3292,5.3301,5.3113,5.3292,5.3292,5.3291,5.3291,5.329,0,5.3172,5.3173,5.3207,5.3231,5.326,5.3219,5.3235,5.3261,5.3304,5.3314,5.3341,5.3386,5.342,5.341,5.3439,5.347,5.3452,5.3479,5.3475,5.3476,5.3329,5.3311,5.3493,5.3493,5.3493,5.3493,5.3493,5.3493,5.3274,5.3343,5.3329,5.3401,5.3401,5.3447,5.3459,5.3473,5.348,5.3533,5.356,5.3553,5.3555,5.3584,5.3613,5.3609,5.3621,5.3655,5.3644,5.3507,5.3487,5.3468,5.345,5.3658,5.3658,5.3787,5.3789,5.379]}]]